Location: Mentone
(34.5413°N, 85.5351°W)
Time: 10:32:16
(UTC-06:00)

S-56A Canister/Altair - Visible Passes

Search period start: 02 March 2015 00:00
Search period end: 12 March 2015 01:00
Orbit: 635 x 2501 km, 38.9° (Epoch: 26 February)

Date Brightness Start Highest point End Pass type
(mag) Time Alt. Az. Time Alt. Az. Time Alt. Az.
02 Mar 9.1 03:15:20 33° ENE 03:15:20 33° ENE 03:17:53 10° ENE visible
02 Mar 7.8 05:12:47 17° WNW 05:16:51 52° N 05:21:15 10° ENE visible
03 Mar 10.0 02:44:43 18° ENE 02:44:43 18° ENE 02:45:57 10° ENE visible
03 Mar 7.8 04:42:09 30° WNW 04:44:40 54° N 04:49:14 10° ENE visible
04 Mar 7.9 04:11:32 51° NW 04:12:29 58° N 04:17:15 10° ENE visible
05 Mar 8.1 03:40:53 58° NNE 03:40:53 58° NNE 03:45:18 10° ENE visible
05 Mar 7.6 05:39:12 10° WNW 05:44:34 62° N 05:48:59 10° E visible
06 Mar 9.0 03:10:13 38° ENE 03:10:13 38° ENE 03:13:22 10° ENE visible
06 Mar 7.8 05:07:40 15° WNW 05:12:26 59° N 05:16:57 10° E visible
07 Mar 9.8 02:39:34 23° ENE 02:39:34 23° ENE 02:41:25 10° ENE visible
07 Mar 7.9 04:37:00 26° WNW 04:40:14 58° N 04:44:55 10° E visible
08 Mar 10.5 03:08:54 13° ENE 03:08:54 13° ENE 03:09:28 10° ENE visible
08 Mar 8.0 05:06:21 43° NW 05:08:00 58° N 05:12:55 10° E visible
09 Mar 8.2 04:35:41 59° N 04:35:44 59° N 04:40:57 10° E visible
09 Mar 7.4 06:34:13 10° WNW 06:39:58 79° SSW 06:44:29 10° ESE visible
10 Mar 8.8 04:05:03 46° NE 04:05:03 46° NE 04:08:58 10° ENE visible
10 Mar 7.5 06:02:30 14° WNW 06:07:51 89° SSW 06:12:32 10° ESE visible
11 Mar 9.6 03:34:26 29° ENE 03:34:26 29° ENE 03:37:00 10° ENE visible
11 Mar 7.7 05:31:53 25° WNW 05:35:41 83° NNE 05:40:35 10° ESE visible
11 Mar 11.5 22:35:34 10° SSW 22:36:07 11° SSW 22:36:07 11° SSW visible
